sat.trackr.live / text

‹ back to catalog

ONEWEB-0548

NORAD 56050 · 2023-043E

PAYLOAD ACTIVE UNKNOWN

§ Identity

Operator
Country
UK
Launch date
2023-03-26
Launch site
SRILR
Launch vehicle
Mass (kg)
RCS (m²)

Purposes: comms

External: N2YO · Heavens-Above · Gunter

§ Orbital elements

Epoch: 2026-09-20T02:53:16.664064Z

Period
109.37 min
Inclination
87.9153°
Eccentricity
0.0002446
Mean motion
13.16593685 rev/d
Perigee alt
1,195.9 km
Apogee alt
1,199.6 km
Semi-major
7,575.9 km
B*
-1.4100e-4
RAAN
209.9213°
Arg perigee
80.5360°
Mean anomaly
279.6048°
Rev number
17,145

§ Raw data

ONEWEB-05481 56050U 23043E   26263.12033176 -.00000041  00000+0 -14100-3 0  99952 56050  87.9153 209.9213 0002446  80.5360 279.6048 13.16593685171456

JSON: /api/v1/satellites/56050 · /tle

For live sub-satellite position, see the globe view (requires WebGL).

§ Visibility from observer

Set your observer location to see the next 7 days of passes ≥ 10°. The values pass through the URL so the page stays shareable.

No JS? Fill the form by hand. The geolocation button needs JavaScript.